OPS 9343

operational
NORAD ID: 3286 Int'l Des: 1968-050 Owner: SAMSO Country: US
MEOCIRCULAR

关于 OPS 9343

正在加载描述...

实时位置

正在加载3D地球...

即将过境

高度历史

Altitude vs Time

uPlot chart will show altitude changes over time

两行轨道根数

1 03286U 68050C 25340.59879079 -.00000056 00000-0 00000-0 0 9998
2 03286 6.8272 53.7099 0019980 150.2407 235.5579 1.07757463 45381
Epoch: Dec 6, 2025 • Age: 27 hours

当前状态

高度 33751.3 km
速度 3.15 km/s
星下点 6.55°N, 178.93°E
类型 other

大型星座

Loading constellations...